TimeCDT,TemperatureF,Dew PointF,Humidity,Sea Level PressureIn,VisibilityMPH,Wind Direction,Wind SpeedMPH,Gust SpeedMPH,PrecipitationIn,Events,Conditions,WindDirDegrees,DateUTC
12:53 AM,66.2,62.6,88,29.91,10.0,ENE,3.5,-,N/A,,Overcast,60,2013-05-17 05:53:00
1:53 AM,68.0,63.0,84,29.89,10.0,East,4.6,-,0.00,Rain,Light Rain,90,2013-05-17 06:53:00
2:53 AM,68.0,63.0,84,29.89,10.0,SE,4.6,-,0.00,,Overcast,130,2013-05-17 07:53:00
3:53 AM,66.9,64.9,93,29.88,6.0,SE,5.8,-,0.12,Rain,Light Rain,130,2013-05-17 08:53:00
4:53 AM,66.9,64.0,90,29.88,10.0,East,4.6,-,0.05,,Mostly Cloudy,100,2013-05-17 09:53:00
5:09 AM,66.2,64.4,94,29.88,10.0,East,5.8,-,N/A,,Mostly Cloudy,100,2013-05-17 10:09:00
5:53 AM,66.9,64.0,90,29.88,10.0,East,3.5,-,N/A,,Overcast,90,2013-05-17 10:53:00
6:24 AM,66.2,64.4,94,29.89,10.0,Calm,Calm,-,N/A,,Overcast,0,2013-05-17 11:24:00
6:53 AM,66.2,64.4,94,29.90,9.0,ESE,3.5,-,N/A,,Overcast,120,2013-05-17 11:53:00
7:53 AM,68.0,64.9,90,29.89,4.0,SSE,9.2,-,N/A,,Overcast,150,2013-05-17 12:53:00
8:01 AM,66.2,64.4,94,29.90,2.5,SSE,8.1,-,N/A,,Overcast,150,2013-05-17 13:01:00
8:17 AM,66.2,64.4,94,29.91,4.0,South,8.1,-,0.01,,Overcast,170,2013-05-17 13:17:00
8:48 AM,66.2,64.4,94,29.92,2.5,SE,8.1,-,0.01,,Overcast,140,2013-05-17 13:48:00
8:53 AM,66.9,64.9,93,29.91,2.0,SE,6.9,-,0.01,,Overcast,140,2013-05-17 13:53:00
9:07 AM,68.0,64.4,88,29.92,4.0,SE,8.1,-,N/A,,Overcast,140,2013-05-17 14:07:00
9:53 AM,68.0,64.9,90,29.91,9.0,SSE,6.9,-,N/A,,Overcast,160,2013-05-17 14:53:00
10:36 AM,68.0,64.4,88,29.92,6.0,South,5.8,-,N/A,,Overcast,170,2013-05-17 15:36:00
10:53 AM,68.0,64.9,90,29.92,5.0,South,3.5,-,N/A,,Overcast,170,2013-05-17 15:53:00
11:06 AM,68.0,66.2,94,29.92,8.0,SE,4.6,-,N/A,,Overcast,140,2013-05-17 16:06:00
11:17 AM,68.0,66.2,94,29.93,7.0,SE,3.5,-,N/A,,Overcast,140,2013-05-17 16:17:00
11:38 AM,68.0,66.2,94,29.93,2.5,SSE,4.6,-,N/A,,Overcast,150,2013-05-17 16:38:00
11:48 AM,68.0,66.2,94,29.93,4.0,SSE,3.5,-,N/A,,Overcast,160,2013-05-17 16:48:00
11:53 AM,68.0,66.0,93,29.92,8.0,SSE,3.5,-,N/A,,Overcast,160,2013-05-17 16:53:00
12:10 PM,69.8,66.2,88,29.92,8.0,SSW,3.5,-,N/A,,Overcast,210,2013-05-17 17:10:00
12:53 PM,71.1,66.9,87,29.91,10.0,Variable,4.6,-,0.00,,Overcast,0,2013-05-17 17:53:00
1:09 PM,71.6,66.2,83,29.92,10.0,Calm,Calm,-,N/A,,Overcast,0,2013-05-17 18:09:00
1:53 PM,71.6,66.2,83,29.92,10.0,WNW,4.6,-,N/A,,Overcast,290,2013-05-17 18:53:00
2:53 PM,75.0,66.9,76,29.90,10.0,Calm,Calm,-,N/A,,Mostly Cloudy,0,2013-05-17 19:53:00
3:03 PM,75.2,66.2,73,29.91,10.0,North,3.5,-,N/A,,Partly Cloudy,10,2013-05-17 20:03:00
3:53 PM,75.9,66.9,74,29.90,10.0,North,3.5,-,N/A,,Overcast,350,2013-05-17 20:53:00
4:13 PM,77.0,66.2,69,29.90,10.0,North,3.5,-,N/A,,Overcast,360,2013-05-17 21:13:00
4:21 PM,77.0,66.2,69,29.90,10.0,Calm,Calm,-,N/A,,Overcast,0,2013-05-17 21:21:00
4:53 PM,77.0,66.9,71,29.89,10.0,Variable,3.5,-,N/A,,Mostly Cloudy,0,2013-05-17 21:53:00
5:53 PM,75.9,66.9,74,29.88,10.0,Calm,Calm,-,N/A,,Clear,0,2013-05-17 22:53:00
6:53 PM,77.0,66.0,69,29.90,10.0,Calm,Calm,-,N/A,,Partly Cloudy,0,2013-05-17 23:53:00
7:53 PM,71.1,66.0,84,29.90,10.0,ENE,3.5,-,N/A,,Clear,60,2013-05-18 00:53:00
8:53 PM,66.9,64.9,93,29.92,10.0,Calm,Calm,-,N/A,,Clear,0,2013-05-18 01:53:00
9:53 PM,64.9,63.0,93,29.94,10.0,ENE,3.5,-,N/A,,Clear,60,2013-05-18 02:53:00
10:53 PM,66.0,64.0,93,29.95,10.0,NE,3.5,-,N/A,,Clear,50,2013-05-18 03:53:00
11:53 PM,66.0,64.0,93,29.95,9.0,Calm,Calm,-,N/A,,Clear,0,2013-05-18 04:53:00